CAPE
2 1 1 0 0 3 1 0 0 0 0 0 0 0 0 0 0 0 0 0 0 17 0 0 0 0 0 0 0 0 0 0 0 3 2 141 387 349 242 93 220 131 70 49 68
2 0 0 0 0 1 2 1 0 0 0 0 0 0 0 0 0 0 0 0 19 46 0 0 0 0 0 0 0 0 0 0 0 0 11 123 300 348 245 183 36 0 47 117 86
2 0 0 1 0 0 1 1 0 0 0 0 0 0 0 0 0 0 0 1 86 35 0 0 0 0 0 0 0 1 0 3 5 9 1 117 229 246 195 147 17 0 0 9 0
2 0 0 2 0 0 0 1 0 0 0 0 0 0 0 0 0 0 191 331 152 0 0 0 0 0 0 0 5 8 2 0 7 101 101 128 324 348 419 333 13 0 0 0 0
1 0 1 0 0 0 0 1 0 0 0 0 0 0 0 0 0 41 613 424 0 0 0 0 0 0 0 0 2 13 0 0 10 30 153 309 408 326 188 0 0 0 0 0 0
1 0 0 0 0 0 0 1 0 0 0 0 0 0 0 0 0 0 0 0 0 0 0 0 0 0 1 1 3 0 27 4 0 70 338 320 222 304 179 0 0 0 0 0 0
3 0 0 0 0 0 0 1 0 0 0 0 0 0 0 0 0 0 0 0 0 0 0 0 0 7 0 17 12 2 83 19 0 21 328 251 280 427 212 0 0 0 0 0 0
3 0 2 0 0 0 0 1 0 0 0 0 0 0 0 0 0 0 0 0 0 0 0 0 0 0 0 2 2 0 1 4 0 0 321 243 247 262 69 5 0 0 0 0 0
0 0 0 0 1 0 1 1 0 0 0 0 0 0 0 0 0 0 0 0 0 0 0 0 0 0 1 1 0 0 4 28 71 60 173 187 335 352 18 1 2 0 0 0 0
1 1 0 0 0 0 0 0 0 0 0 0 0 0 0 0 0 0 0 0 0 0 0 0 0 0 0 0 0 0 24 4 64 55 43 176 399 205 95 58 2 0 0 0 0
2 0 1 0 0 0 0 0 0 0 0 0 0 0 0 0 0 0 0 0 0 0 0 0 0 0 0 0 0 0 0 1 36 33 31 97 401 297 158 96 31 16 0 0 0
1 0 0 0 0 0 0 0 0 0 0 0 0 0 0 0 0 0 0 0 0 0 0 0 0 0 0 0 0 16 25 28 14 46 49 111 347 372 253 154 78 66 75 28 12
0 1 0 0 0 0 0 0 0 0 0 0 0 0 0 0 0 0 0 0 0 0 0 0 0 0 0 0 3 8 8 8 11 160 175 154 114 64 107 34 61 236 184 80 61
0 0 0 0 0 0 0 0 0 0 0 0 0 0 0 0 0 0 0 0 0 0 0 0 0 0 0 2 9 8 0 14 12 51 7 86 62 75 0 0 61 124 184 219 109
0 1 0 0 0 0 0 0 0 0 0 0 0 0 0 0 0 0 0 0 0 0 0 0 0 0 5 10 1 2 19 0 1 0 0 72 33 0 0 0 1 6 24 51 8
0 0 0 0 0 0 0 0 0 0 0 0 0 0 0 0 0 0 0 0 0 0 0 0 0 0 0 18 2 10 1 0 0 0 0 0 3 0 0 0 0 0 0 0 0
1 0 0 0 0 0 0 0 0 0 0 0 1 1 1 0 0 0 0 0 0 0 0 0 0 0 46 53 6 0 0 2 0 0 0 0 0 0 0 0 0 0 0 0 0
0 0 0 0 0 0 0 0 0 0 0 1 16 27 84 0 0 0 0 5 21 0 0 0 0 20 37 33 52 17 0 0 0 0 0 0 0 0 0 0 0 0 0 0 0
0 0 0 0 0 0 0 0 0 0 35 38 17 90 72 79 38 28 29 133 91 3 1 0 4 24 67 43 30 8 0 0 0 0 0 0 0 0 0 0 0 0 0 0 0
0 0 0 0 0 0 0 0 0 13 45 4 67 36 48 34 18 60 54 75 63 24 0 10 10 63 0 2 1 10 0 0 0 0 0 0 0 0 0 0 0 0 0 0 0
0 0 0 0 0 0 0 0 0 12 83 44 8 6 32 23 36 64 29 107 41 85 12 0 0 0 0 0 0 0 0 0 0 0 0 0 0 0 0 0 0 0 0 0 0
0 0 0 0 0 0 0 0 0 5 0 151 78 32 14 75 55 41 79 49 63 100 85 0 0 0 0 0 0 0 0 0 0 0 0 0 0 0 0 0 0 0 0 0 0
0 0 0 0 0 0 0 0 0 11 25 85 143 10 43 27 29 37 147 100 53 50 0 0 0 0 0 0 0 0 0 0 0 0 0 0 0 0 0 0 0 0 0 0 0
0 31 54 0 0 0 0 0 0 2 46 26 45 10 0 8 18 62 93 148 101 2 14 0 0 0 0 0 0 0 0 0 0 0 0 0 0 0 0 0 0 0 0 0 0
0 0 18 5 0 0 0 0 0 11 14 0 3 14 1 4 31 19 102 63 31 2 0 0 0 0 3 0 0 0 0 0 0 0 0 0 0 0 0 0 0 0 0 0 0
110 409 169 0 0 0 0 8 52 0 44 16 0 35 13 0 0 0 73 46 33 4 0 0 0 0 0 0 1 0 0 0 0 0 0 0 0 0 0 0 0 0 0 0 0
0 0 18 0 0 0 24 60 81 54 11 112 90 67 2 0 2 0 24 13 12 7 0 0 0 0 0 0 3 0 0 0 0 0 0 0 0 0 0 0 0 0 0 0 0
CIN
-0 -0 -0 -0 -0 -0 -0 -0 -0 -0 -0 -0 -0 -0 -0 -0 -0 -0 -0 -0 -0 -720 -0 -0 -0 -0 -0 -0 -0 -0 -112 -0 -0 -48 -31 -126 -82 -137 -163 -176 -158 -181 -224 -242 -184
-0 -0 -0 -0 -0 -0 -0 -0 -0 -0 -0 -0 -0 -0 -0 -0 -0 -0 -0 -0 -675 -797 -0 -0 -0 -0 -0 -0 -0 -0 -0 -0 -0 -0 -87 -105 -85 -131 -149 -153 -212 -0 -173 -225 -156
-0 -0 -0 -0 -0 -0 -0 -0 -0 -0 -0 -0 -0 -0 -0 -0 -0 -0 -0 -183 -838 -792 -0 -0 -0 -0 -0 -0 -0 -17 -0 -169 -92 -137 -16 -102 -117 -153 -192 -154 -241 -0 -0 -31 -0
-0 -0 -0 -0 -0 -0 -0 -0 -0 -0 -0 -0 -0 -0 -0 -0 -0 -0 -751 -804 -815 -0 -0 -0 -0 -0 -0 -0 -145 -90 -24 -0 -112 -99 -99 -111 -147 -165 -126 -116 -251 -0 -0 -0 -0
-0 -0 -0 -0 -0 -0 -0 -0 -0 -0 -0 -0 -0 -0 -0 -0 -0 -538 -775 -797 -0 -0 -0 -0 -0 -0 -0 -0 -123 -138 -15 -51 -214 -173 -143 -145 -139 -181 -202 -0 -0 -0 -0 -0 -0
-0 -0 -0 -0 -0 -0 -0 -0 -0 -0 -0 -0 -0 -0 -0 -0 -0 -0 -0 -0 -0 -0 -0 -0 -0 -0 -156 -91 -180 -7 -231 -136 -0 -157 -133 -167 -212 -161 -170 -0 -0 -0 -0 -0 -0
-0 -0 -0 -0 -0 -0 -0 -0 -0 -0 -0 -0 -0 -0 -0 -0 -0 -0 -0 -0 -0 -0 -0 -0 -0 -155 -15 -278 -388 -322 -154 -235 -0 -250 -139 -207 -155 -136 -195 -0 -0 -0 -0 -0 -0
-0 -0 -0 -0 -0 -0 -0 -0 -0 -0 -0 -0 -0 -0 -0 -0 -0 -0 -0 -0 -0 -0 -0 -0 -0 -0 -14 -354 -178 -0 -92 -185 -14 -0 -217 -155 -131 -194 -281 -368 -0 -0 -0 -0 -0
-0 -0 -0 -0 -0 -0 -0 -0 -0 -0 -0 -0 -0 -0 -0 -0 -0 -0 -0 -0 -0 -0 -0 -0 -0 -0 -133 -140 -0 -0 -71 -194 -211 -268 -248 -223 -192 -183 -213 -74 -162 -0 -0 -0 -0
-0 -0 -0 -0 -0 -0 -0 -0 -0 -0 -0 -0 -0 -0 -0 -0 -0 -0 -0 -0 -0 -0 -0 -0 -0 -12 -0 -0 -0 -0 -115 -227 -200 -228 -257 -238 -213 -247 -236 -255 -106 -0 -0 -0 -0
-0 -0 -0 -0 -0 -0 -0 -0 -0 -0 -0 -0 -0 -0 -0 -0 -0 -0 -0 -0 -0 -0 -0 -0 -0 -0 -0 -0 -0 -0 -0 -48 -157 -207 -186 -240 -209 -220 -266 -245 -241 -304 -0 -0 -0
-0 -0 -0 -0 -0 -0 -0 -0 -0 -0 -0 -0 -0 -0 -0 -0 -0 -0 -0 -0 -0 -0 -0 -0 -0 -0 -0 -0 -0 -130 -55 -117 -178 -258 -206 -299 -207 -151 -188 -231 -229 -213 -193 -223 -254
-0 -0 -0 -0 -0 -0 -0 -0 -0 -0 -0 -0 -0 -0 -0 -0 -0 -0 -0 -0 -0 -0 -0 -0 -0 -0 -0 -0 -48 -104 -89 -66 -86 -254 -289 -231 -187 -229 -161 -230 -215 -138 -129 -194 -231
-0 -0 -0 -0 -0 -0 -0 -0 -0 -0 -0 -0 -0 -0 -0 -0 -0 -0 -0 -0 -0 -0 -0 -0 -0 -0 -0 -23 -91 -87 -0 -90 -146 -197 -49 -217 -75 -212 -0 -0 -158 -117 -118 -105 -184
-0 -0 -0 -0 -0 -0 -0 -0 -0 -0 -0 -0 -0 -0 -0 -0 -0 -0 -0 -0 -0 -0 -0 -0 -0 -0 -74 -55 -103 -41 -122 -0 -36 -0 -0 -216 -121 -0 -0 -0 -170 -186 -215 -220 -227
-0 -0 -0 -0 -0 -0 -0 -0 -0 -0 -0 -0 -0 -0 -4 -0 -0 -0 -0 -0 -0 -0 -0 -0 -0 -0 -0 -89 -110 -149 -38 -0 -0 -0 -0 -0 -67 -0 -0 -0 -0 -0 -0 -0 -0
-0 -0 -0 -0 -0 -0 -0 -0 -0 -0 -0 -0 -30 -40 -79 -0 -0 -0 -0 -0 -0 -0 -0 -0 -0 -0 -79 -50 -154 -13 -0 -12 -0 -0 -0 -0 -0 -0 -0 -0 -0 -0 -0 -0 -0
-0 -0 -0 -0 -0 -0 -0 -0 -0 -0 -0 -128 -109 -133 -73 -0 -0 -0 -0 -16 -131 -0 -0 -0 -0 -63 -62 -55 -42 -117 -0 -0 -0 -0 -0 -0 -0 -0 -0 -0 -0 -0 -0 -0 -0
-0 -0 -0 -0 -0 -0 -0 -0 -0 -22 -116 -95 -121 -159 -157 -196 -233 -169 -157 -131 -148 -47 -9 -3 -54 -105 -77 -86 -74 -4 -0 -0 -0 -0 -0 -0 -0 -0 -0 -0 -0 -0 -0 -0 -0
-0 -0 -0 -0 -0 -0 -0 -0 -0 -107 -148 -173 -123 -193 -164 -232 -179 -193 -195 -171 -170 -192 -0 -94 -130 -120 -0 -13 -22 -34 -0 -0 -0 -0 -0 -0 -0 -0 -0 -0 -0 -0 -0 -0 -0
-0 -0 -0 -0 -0 -0 -0 -0 -0 -154 -117 -144 -163 -98 -170 -184 -222 -167 -128 -134 -187 -180 -237 -17 -0 -35 -0 -0 -0 -0 -0 -0 -0 -0 -0 -0 -0 -0 -0 -0 -0 -0 -0 -0 -0
-0 -0 -0 -0 -0 -0 -0 -0 -0 -110 -8 -137 -241 -189 -200 -302 -218 -191 -209 -230 -314 -264 -165 -0 -0 -0 -0 -0 -0 -0 -0 -0 -0 -0 -0 -0 -0 -0 -0 -0 -0 -0 -0 -0 -0
-0 -0 -0 -0 -0 -0 -0 -0 -0 -47 -113 -137 -171 -215 -223 -232 -169 -237 -173 -213 -298 -211 -0 -0 -0 -0 -0 -0 -0 -0 -0 -0 -0 -0 -0 -0 -0 -0 -0 -0 -0 -0 -0 -0 -0
-0 -47 -59 -0 -0 -0 -0 -0 -0 -30 -116 -184 -135 -181 -97 -141 -295 -217 -143 -149 -244 -30 -202 -0 -0 -0 -0 -0 -0 -0 -0 -0 -0 -0 -0 -0 -0 -0 -0 -0 -0 -0 -0 -0 -0
-0 -0 -43 -40 -0 -0 -0 -0 -0 -76 -135 -2 -123 -243 -198 -172 -172 -177 -157 -122 -206 -77 -0 -0 -0 -0 -115 -0 -0 -0 -0 -0 -0 -0 -0 -0 -0 -0 -0 -0 -0 -0 -0 -0 -0
-216 -128 -283 -0 -0 -0 -0 -274 -194 -3 -150 -134 -0 -168 -238 -2 -0 -0 -116 -146 -139 -54 -0 -0 -0 -0 -0 -0 -88 -0 -0 -0 -0 -0 -0 -0 -79 -0 -0 -0 -0 -0 -0 -0 -0
-0 -0 -212 -0 -0 -0 -265 -301 -313 -307 -163 -179 -222 -204 -40 -0 -161 -0 -113 -252 -118 -85 -0 -0 -0 -0 -0 -0 -148 -0 -0 -0 -0 -0 -0 -0 -0 -0 -0 -0 -0 -0 -0 -0 -0
Wind_Speed
11 12 12 11 11 10 9 8 8 7 7 7 7 7 7 8 7 2 6 11 5 12 7 7 2 3 1 3 4 4 4 0 2 2 3 6 6 2 5 8 2 2 5 6 14
11 11 11 11 11 10 9 9 8 8 7 7 7 7 7 7 1 5 11 6 9 13 6 7 4 7 1 2 1 4 4 4 3 3 5 6 4 8 5 3 3 3 6 15 15
12 12 11 11 10 11 10 9 9 9 8 7 7 8 7 5 1 8 4 11 14 9 3 4 4 5 3 1 2 3 4 2 3 8 9 6 4 4 11 4 7 11 9 15 13
12 13 12 10 10 9 9 9 9 8 8 7 8 8 7 2 5 2 5 15 18 5 4 3 4 4 4 4 3 4 1 4 3 3 6 8 5 4 1 3 9 6 10 8 12
12 13 12 11 10 10 10 10 10 9 8 8 7 7 2 1 8 5 15 17 13 5 7 7 6 5 6 6 4 4 2 1 3 5 5 7 4 5 4 10 13 10 7 8 7
12 13 13 12 12 11 11 10 10 10 9 8 6 5 1 2 2 9 12 8 8 7 5 6 8 4 7 4 1 7 7 2 4 2 3 8 4 4 2 10 12 11 8 8 9
11 13 13 13 12 12 12 11 11 10 9 7 4 3 1 8 1 7 9 6 7 6 7 6 2 6 3 5 4 2 3 4 5 7 6 9 1 3 10 8 6 8 8 6 8
12 14 12 13 13 13 14 13 12 11 9 4 3 2 6 1 5 4 4 3 6 6 3 5 8 8 3 6 5 5 3 4 6 8 6 6 3 6 11 14 12 8 7 6 6
14 14 13 13 13 14 15 15 14 8 5 5 2 1 7 1 3 6 5 4 4 5 6 3 6 5 2 5 4 3 4 2 4 9 7 6 5 13 9 13 12 10 7 7 7
14 14 13 13 13 15 19 7 5 2 2 4 3 2 3 6 4 5 6 2 3 4 4 5 4 4 3 3 6 6 4 5 7 6 1 5 5 16 12 9 12 10 7 8 9
13 14 13 13 13 13 10 2 3 1 1 7 5 4 4 6 2 3 4 6 3 3 2 2 4 4 12 11 2 6 5 4 2 6 7 7 10 17 16 11 8 10 12 10 13
14 14 13 13 12 12 3 3 1 2 8 9 9 5 4 1 4 7 6 4 5 5 2 6 4 11 4 4 7 7 5 8 4 3 4 6 4 10 13 11 11 10 9 11 10
12 13 13 12 12 2 1 5 3 4 1 8 5 6 6 8 7 10 8 3 5 4 5 6 12 3 3 4 9 3 6 6 7 5 4 7 1 3 5 5 5 8 10 7 12
12 13 13 15 2 2 4 3 7 6 5 7 4 5 5 5 5 6 9 8 2 9 5 6 7 1 4 6 5 5 9 6 7 6 4 3 4 5 6 7 6 6 9 10 10
12 11 10 7 3 2 2 5 2 4 4 6 4 1 4 9 4 7 5 4 12 9 5 13 4 1 1 6 7 10 7 3 3 3 5 0 2 4 3 5 6 6 4 7 8
12 11 8 2 1 8 8 7 4 8 2 6 4 3 2 2 4 2 3 3 3 4 3 10 2 4 7 3 3 2 1 2 3 3 4 3 5 4 5 6 4 2 3 6 6
13 10 3 3 4 5 5 5 7 4 4 5 3 4 2 4 5 6 6 2 4 2 5 6 6 5 2 2 2 2 6 4 5 5 6 2 1 6 5 5 8 8 8 7 7
19 12 6 6 3 6 4 8 3 4 6 2 3 3 5 8 6 3 4 4 5 4 2 3 7 3 2 5 6 1 6 7 6 4 4 3 4 4 4 5 5 6 6 4 7
14 1 2 5 9 1 7 5 7 5 3 4 2 5 4 2 1 4 3 5 5 3 7 2 4 4 1 2 4 1 4 4 5 2 2 2 5 5 1 3 5 5 6 7 5
2 3 4 3 8 6 7 4 4 3 3 5 3 2 3 5 6 5 3 1 4 5 1 8 3 3 5 7 3 3 3 2 3 2 5 2 4 6 7 9 5 7 9 8 6
2 4 4 4 2 8 4 6 4 2 2 3 5 4 5 3 4 4 2 2 3 3 4 2 3 5 4 1 4 5 3 5 5 3 3 2 7 6 9 11 10 9 8 8 8
1 4 4 3 6 2 3 6 4 3 1 1 2 2 3 2 3 2 3 5 3 3 3 3 5 1 5 4 4 3 2 4 5 3 1 3 8 2 9 8 10 9 9 7 6
2 2 3 4 3 1 4 4 4 5 5 4 1 5 2 5 2 4 2 6 1 3 1 1 3 4 9 7 7 3 3 3 4 3 4 4 8 1 3 7 7 9 7 5 4
3 4 4 5 2 4 3 3 4 5 3 4 5 2 1 4 4 2 3 1 3 4 6 3 3 5 5 6 3 6 6 2 5 3 3 6 3 4 6 7 6 5 3 4 5
3 1 2 3 4 2 1 2 0 1 2 4 3 6 3 7 9 4 2 1 2 2 3 5 1 2 4 7 5 8 5 2 2 3 3 6 5 5 12 10 8 6 3 5 6
3 3 4 2 2 4 5 3 1 1 1 2 7 7 5 4 6 14 3 1 4 3 3 2 2 3 5 4 5 3 10 7 6 3 3 0 5 3 3 5 2 4 6 6 7
2 2 4 4 2 0 2 1 2 2 1 3 6 5 6 5 6 11 4 1 2 6 4 3 2 3 4 7 7 4 5 2 1 1 3 4 5 1 6 5 2 6 8 8 6
Wind_Direction
355 352 344 342 341 337 334 329 323 319 307 305 305 309 310 315 306 128 231 217 178 155 116 119 140 158 176 219 165 121 72 296 280 241 156 146 120 28 38 127 52 249 151 170 150
353 352 345 342 339 335 329 323 317 316 315 313 313 311 314 325 263 233 246 176 121 159 112 144 153 150 197 235 55 81 99 222 239 301 169 170 138 140 111 147 34 49 79 121 140
349 348 346 344 339 334 329 325 320 315 313 314 316 313 312 315 150 240 229 167 143 175 131 163 151 169 121 115 134 164 158 114 233 288 175 154 127 123 133 211 191 172 140 137 141
347 350 344 341 338 331 323 316 309 306 305 313 315 307 310 217 139 243 56 122 139 145 145 167 196 159 128 169 124 118 169 175 253 38 125 162 125 90 299 265 117 133 128 125 145
341 346 345 339 338 328 321 315 309 304 305 304 304 301 265 175 253 108 103 123 127 138 199 206 158 157 160 176 127 127 265 105 223 260 131 111 82 124 61 81 98 99 98 127 130
337 346 343 337 334 326 318 307 300 297 299 297 293 292 239 248 166 142 123 140 141 148 229 200 215 163 99 169 185 158 185 138 344 166 110 110 152 78 103 111 118 126 142 146 150
339 346 341 336 332 325 318 304 297 295 299 291 266 249 95 238 80 152 147 173 166 165 187 223 176 81 115 95 326 52 88 352 257 186 160 121 9 115 149 108 132 159 167 173 190
340 342 339 335 329 323 313 301 292 294 295 253 195 244 247 343 123 132 155 193 184 220 284 359 108 98 85 141 36 38 47 198 188 176 176 136 200 153 148 151 163 191 181 191 224
339 338 338 335 329 320 311 303 286 276 295 141 134 189 272 335 171 214 170 210 162 177 194 119 69 109 111 88 26 41 261 258 311 202 148 185 137 169 170 179 181 183 196 186 221
335 338 337 335 331 324 317 275 138 133 170 209 255 359 271 232 212 186 200 163 255 317 113 142 74 111 52 111 251 206 228 255 235 169 118 167 134 170 184 189 207 190 201 207 218
335 337 336 333 331 333 348 112 29 4 244 196 194 225 269 266 286 227 159 137 174 87 270 55 69 264 243 213 215 186 186 246 238 189 156 195 155 184 183 196 217 213 210 201 225
336 336 335 330 328 326 312 95 146 227 310 223 241 264 292 34 325 276 123 160 146 229 86 8 281 250 269 203 203 140 221 236 268 211 128 150 170 196 193 203 211 218 223 227 233
323 333 333 328 324 324 154 231 226 1 253 298 193 194 198 157 221 263 155 194 197 223 200 185 245 299 224 189 186 205 186 249 214 107 36 115 281 217 224 233 245 218 224 216 232
321 333 334 325 330 285 261 189 254 177 64 280 241 256 155 149 278 220 198 160 259 222 199 219 265 212 284 224 151 185 223 229 171 131 227 164 251 233 194 239 243 232 232 221 218
314 323 332 354 277 193 200 320 38 67 45 308 300 324 135 159 185 251 172 97 230 235 109 257 268 95 139 219 164 231 174 226 321 186 103 101 85 258 130 238 250 271 217 176 200
311 327 332 130 251 250 308 339 67 44 308 339 341 16 39 277 236 263 177 124 217 232 181 243 220 208 229 215 189 50 128 71 84 86 14 199 168 251 185 195 193 221 222 165 158
314 318 279 314 233 312 308 51 46 111 314 279 302 37 43 317 289 191 176 177 190 175 286 337 310 284 127 234 133 103 59 341 346 358 228 208 137 247 223 219 177 180 184 179 175
316 303 214 227 295 350 51 54 109 247 249 324 334 315 87 15 302 301 94 115 15 141 149 275 313 1 274 228 225 123 155 154 235 223 266 330 260 272 277 201 173 176 180 167 167
317 128 206 253 200 71 71 71 205 212 323 349 27 17 338 67 49 350 32 143 199 202 139 130 262 301 105 253 116 260 240 213 125 58 76 286 307 306 190 238 170 181 158 189 191
26 8 275 146 168 74 73 226 236 238 350 53 44 122 270 336 35 9 14 215 217 237 268 205 203 248 339 31 6 191 162 291 22 257 269 265 273 239 230 230 210 179 189 200 202
44 49 267 192 108 53 140 227 270 212 168 115 197 255 244 163 126 298 256 326 348 289 296 119 107 288 58 31 248 333 326 49 110 122 187 265 259 209 222 208 190 191 197 191 184
48 62 318 74 64 19 165 203 227 183 167 119 114 119 303 166 133 228 282 211 32 360 319 320 134 354 225 260 279 216 207 133 124 250 227 164 269 268 240 184 163 187 197 200 180
73 247 346 73 122 268 275 257 233 182 188 189 3 97 104 281 166 195 193 282 255 58 165 285 14 20 339 356 3 13 269 133 105 79 201 150 266 322 133 149 174 179 200 188 187
82 44 359 57 124 141 233 291 276 34 120 157 149 106 110 209 277 199 245 211 313 92 63 77 102 153 208 232 210 305 295 132 137 120 214 231 259 248 230 204 200 206 204 224 207
38 313 200 357 350 346 252 173 279 205 22 57 74 75 3 9 353 290 293 307 99 17 73 86 28 197 250 254 267 287 308 225 77 211 169 293 226 244 220 207 209 203 146 126 101
88 70 10 65 319 357 352 25 36 196 187 238 139 168 151 103 189 275 200 194 241 24 87 54 289 34 299 330 330 88 20 47 63 39 44 91 272 263 138 120 154 188 134 107 102
314 333 105 311 4 71 252 281 293 212 232 213 200 135 109 162 297 282 218 235 151 157 149 126 105 53 283 340 327 12 344 8 101 98 277 273 278 30 55 78 67 85 105 113 127